This is the latest recevied weather packets stored in our database for station/object SP3PDK-1. If no packets are shown the sender has not sent any weather packets the latest 10 day(s).
| Time | Temp. | Humidity | Pressure | Rain* | Wind** | Luminosity | Snow |
|---|---|---|---|---|---|---|---|
| 1777389858 | 15.56° C | 24% | 1023.6 hPa | - | - | - | - |
| 1777389254 | 15° C | 24% | 1023.7 hPa | - | - | - | - |
| 1777388656 | 15.56° C | 25% | 1023.7 hPa | - | - | - | - |
| 1777388053 | 15° C | 25% | 1023.8 hPa | - | - | - | - |
| 1777387457 | 15° C | 25% | 1023.9 hPa | - | - | - | - |
| 1777386858 | 15° C | 25% | 1024 hPa | - | - | - | - |
| 1777386253 | 15° C | 25% | 1024.1 hPa | - | - | - | - |
| 1777385654 | 15.56° C | 24% | 1024.1 hPa | - | - | - | - |
| 1777385054 | 15.56° C | 24% | 1024.3 hPa | - | - | - | - |
| 1777383858 | 16.11° C | 24% | 1024.2 hPa | - | - | - | - |
| 1777383257 | 15.56° C | 23% | 1024.4 hPa | - | - | - | - |
| 1777382654 | 15° C | 23% | 1024.3 hPa | - | - | - | - |
| 1777382054 | 15° C | 22% | 1024.7 hPa | - | - | - | - |
| 1777381458 | 15° C | 22% | 1024.7 hPa | - | - | - | - |
| 1777380254 | 15° C | 23% | 1024.6 hPa | - | - | - | - |
| 1777379654 | 16.11° C | 23% | 1024.6 hPa | - | - | - | - |
| 1777379058 | 15° C | 23% | 1024.9 hPa | - | - | - | - |
| 1777378458 | 15° C | 23% | 1024.8 hPa | - | - | - | - |
| 1777377858 | 15° C | 24% | 1024.7 hPa | - | - | - | - |
| 1777377254 | 14.44° C | 23% | 1025 hPa | - | - | - | - |
| 1777376658 | 14.44° C | 23% | 1025.1 hPa | - | - | - | - |
| 1777376054 | 14.44° C | 24% | 1025 hPa | - | - | - | - |
| 1777375458 | 14.44° C | 24% | 1025.1 hPa | - | - | - | - |
| 1777374854 | 15° C | 23% | 1025 hPa | - | - | - | - |
| 1777374254 | 15.56° C | 24% | 1025.1 hPa | - | - | - | - |
* Rain since midnight (hover to see other rain measurements)
** Current wind speed in m/s (hover to see current wind gust speed)